User: anonymous   Login
Location: PACMO
(41.3967°N, 90.3760°W)
Time: 08:47:43
(UTC-06:00)
Language:

NOAA 19 - Orbit

View from above orbital plane
View from above orbital plane
View from above satellite
View from above satellite

Ground track
Ground track

The orbit data is extracted from the following two-line orbital elements,

1 33591U 09005A   18016.95208747 +.00000064 +00000-0 +59898-4 0  9996
2 33591 099.1230 352.1325 0014592 034.7637 325.4484 14.12246575460567
Epoch (UTC): 16 January 2018 22:51:00
Eccentricity: 0.0014592
inclination: 99.1230°
perigee height: 841 km
apogee height: 862 km
right ascension of ascending node: 352.1325°
argument of perigee: 34.7637°
revolutions per day: 14.12246575
mean anomaly at epoch: 325.4484°
orbit number at epoch: 46056

The dashed part of the orbit path shows where the satellite is in the earth's shadow,  

DLR